Wind_Speed
43 44 44 45 46 46 46 47 47 48 48 48 48 48 48 49 50 50 51 51 51 52 52 51 48 46 44 43 43 43 43 43 43 44 44 44 45 46 46 47 48 49 50 50 50 51 51 50 51 51 51 51 51 50 50 50 49 50 50 50 50 49 49 49 50 50 50 50 51 52 53 53 54 56 58 59 59 60 61 63 64 66 68 70 72 72 73
44 45 46 46 47 47 48 48 48 48 48 48 48 48 48 49 49 50 50 50 50 50 49 48 46 45 44 44 45 45 44 45 45 45 45 46 47 48 48 49 50 50 50 50 50 50 50 50 50 50 49 50 49 49 49 49 48 48 49 49 49 49 48 48 49 50 50 51 52 53 54 55 56 57 59 61 62 63 64 65 67 69 71 73 75 76 78
45 46 46 47 48 48 48 48 48 49 49 48 48 48 48 48 49 49 50 50 49 48 47 45 45 45 45 45 45 45 45 45 46 47 47 48 49 49 50 50 50 50 50 50 49 49 49 48 48 48 48 48 48 48 48 47 47 48 48 48 49 49 49 49 49 49 51 52 54 55 56 57 58 59 61 63 64 65 67 69 71 73 75 77 79 81 82
45 45 46 46 47 47 47 48 48 48 48 47 46 47 47 48 48 49 49 49 48 46 45 45 45 45 45 46 46 46 46 47 47 48 49 49 50 50 50 50 49 49 49 48 48 48 47 47 46 46 46 46 46 47 47 47 47 47 48 48 49 50 50 50 50 51 52 54 56 57 58 59 61 62 64 65 67 69 71 73 75 77 79 82 84 86 87
43 44 45 46 46 47 47 48 48 47 46 45 45 46 47 47 47 48 48 47 46 45 45 45 45 45 46 46 46 47 48 48 49 49 49 49 49 49 49 48 48 47 47 47 46 46 46 46 45 45 45 45 46 46 46 47 47 47 48 49 50 51 52 52 53 54 56 57 59 60 61 63 64 66 67 69 71 73 75 77 80 82 84 87 89 91 93
44 45 46 46 47 48 47 47 46 45 44 45 45 46 46 46 46 46 46 45 44 44 45 45 46 46 47 47 48 48 48 49 49 49 49 48 48 47 47 46 46 45 45 45 45 45 45 45 45 45 45 46 46 46 47 47 48 49 50 51 52 54 55 56 56 57 59 61 62 64 65 66 68 70 71 73 75 77 80 82 84 87 89 91 94 96 98
44 45 46 47 47 46 45 44 43 43 44 44 45 45 45 46 46 45 44 43 43 44 45 45 46 47 48 48 49 49 48 48 48 48 47 46 45 45 44 44 44 44 44 44 45 45 45 46 46 46 46 47 47 48 48 49 50 51 52 54 55 57 58 59 60 61 62 64 65 67 69 71 73 74 76 77 79 81 84 86 89 91 94 96 98 100 102
44 45 46 46 45 43 42 42 42 43 43 44 44 44 45 44 44 43 42 43 44 44 45 46 47 48 49 49 49 48 48 47 46 45 44 44 43 43 43 43 43 44 44 44 45 45 45 45 46 47 48 48 49 50 51 52 53 54 55 56 58 59 61 62 63 64 66 67 69 71 73 75 78 79 81 82 84 85 88 90 92 95 98 100 102 104 106
43 44 43 42 41 40 40 41 42 43 43 43 43 43 43 42 41 42 42 43 45 46 47 48 48 48 48 48 48 47 46 45 44 43 43 42 42 42 43 43 43 44 44 44 45 45 46 46 47 48 49 50 51 52 53 54 55 56 57 59 60 62 64 65 66 68 70 71 73 75 77 79 82 84 85 86 88 90 92 94 96 99 102 104 105 107 109
41 40 39 39 39 39 40 41 41 42 42 42 42 42 41 40 41 42 43 45 46 46 47 47 47 47 46 46 45 45 44 43 43 42 42 42 43 43 43 43 43 44 44 45 45 46 47 47 48 49 50 51 53 54 55 56 57 59 60 62 63 65 67 69 71 72 74 76 77 79 81 83 85 88 89 91 93 94 96 98 100 103 105 106 107 108 108
37 37 36 37 38 39 39 40 40 41 41 41 40 40 40 41 42 43 44 45 45 45 45 45 45 44 43 43 42 42 42 42 42 41 42 42 42 42 43 43 43 44 45 46 47 48 48 49 50 51 52 53 55 56 57 59 60 62 64 65 67 69 71 73 75 77 78 80 81 83 85 88 90 91 93 95 96 98 99 101 103 104 105 106 106 105 105
35 35 36 36 37 38 38 39 40 40 39 39 39 40 41 42 43 43 44 44 43 43 43 42 41 41 40 40 40 40 40 40 41 41 41 41 42 42 43 44 45 45 46 47 49 49 50 51 52 53 54 56 58 59 61 62 64 66 67 69 71 73 75 77 79 81 83 85 86 88 90 92 93 95 96 97 98 99 100 100 101 102 102 102 102 102 102
34 34 35 35 36 37 38 38 38 38 38 39 40 41 41 42 42 42 41 41 40 40 39 39 38 38 38 38 38 39 39 40 40 41 41 42 43 43 44 45 46 47 47 48 50 51 52 53 54 56 57 59 61 63 64 66 68 70 72 73 75 77 79 81 83 85 87 88 90 91 93 95 96 97 97 98 97 97 97 96 97 98 99 99 99 100 100
33 33 34 35 36 37 37 37 37 38 39 40 40 40 40 40 39 39 38 37 37 37 36 36 36 37 37 37 38 38 39 39 40 41 41 42 43 44 44 45 46 47 49 50 51 53 54 56 57 58 60 62 64 66 68 70 72 75 77 78 80 82 83 85 86 88 89 90 92 93 94 95 95 95 95 95 94 94 93 93 93 95 96 97 97 98 98
32 33 34 35 35 35 36 37 38 39 39 39 39 38 38 37 36 36 35 35 35 35 35 35 35 36 36 37 37 38 38 39 39 40 41 42 43 44 45 46 48 49 51 52 54 56 57 59 61 63 64 66 68 71 73 75 76 78 80 82 83 85 86 87 88 89 90 90 90 90 91 92 92 92 92 92 92 91 91 91 91 92 94 94 95 95 96
32 34 34 34 34 35 36 37 37 37 37 36 35 35 34 34 34 34 33 33 34 34 34 34 35 35 36 36 37 37 37 38 39 40 41 43 44 45 47 48 50 52 54 56 58 60 62 64 66 68 70 72 73 75 76 78 79 80 81 83 84 85 85 86 87 87 87 87 88 88 88 88 89 89 90 90 90 90 90 90 91 92 92 93 94 94 94
33 33 33 34 35 36 36 36 35 34 33 33 32 32 32 32 32 32 32 33 33 33 33 34 34 35 35 36 37 37 38 39 40 41 43 44 46 47 49 51 53 56 58 60 63 65 67 69 71 72 74 75 76 77 78 79 80 80 81 81 82 82 83 83 84 85 85 85 85 86 86 87 87 88 88 89 90 90 90 91 90 91 92 92 92 92 92
32 32 33 34 34 34 33 32 32 31 31 31 31 31 31 31 31 31 32 32 32 33 33 33 34 35 35 36 37 38 39 41 42 44 45 47 49 52 54 56 58 61 63 65 67 69 70 72 73 74 75 76 77 77 77 78 78 78 78 79 79 80 80 80 81 82 82 82 82 83 84 85 86 86 87 88 89 89 90 90 90 89 90 90 90 89 89
31 32 32 32 31 30 30 29 29 29 28 28 28 28 29 29 30 30 31 31 32 32 33 33 34 35 36 37 39 40 42 44 46 48 49 51 53 55 57 60 62 64 66 68 69 71 72 73 74 74 74 74 75 75 75 75 75 75 75 75 76 76 76 77 77 78 79 79 79 80 81 83 84 85 85 86 87 86 87 87 87 87 87 87 88 88 88
30 30 29 28 27 27 27 26 26 26 26 26 27 28 28 29 29 30 31 32 33 34 35 36 37 39 40 41 43 44 45 47 48 49 51 53 55 58 61 64 66 68 69 70 71 72 72 72 72 71 71 71 71 71 71 71 72 72 72 72 72 73 73 73 74 74 75 76 76 76 77 78 79 80 81 81 82 82 82 83 84 84 85 85 86 86 86
27 26 25 25 25 24 24 24 24 25 26 27 28 29 30 31 32 33 35 36 38 39 40 41 42 43 44 44 45 45 46 47 48 50 52 56 59 62 65 67 69 70 70 70 70 69 69 68 67 67 67 67 67 67 67 67 67 68 68 68 69 69 70 71 71 71 72 72 73 73 73 73 74 75 76 77 77 78 79 80 81 82 82 83 83 83 83
23 23 22 22 22 22 22 23 24 25 27 28 30 31 33 34 36 38 40 41 41 42 43 43 43 44 44 44 44 44 45 47 50 53 56 60 63 66 67 68 69 69 68 67 66 65 64 63 63 62 63 62 62 63 63 63 64 64 65 66 66 67 68 69 69 70 70 71 71 71 71 71 72 73 74 75 76 77 79 79 80 80 81 81 81 81 81
20 20 19 20 20 21 22 24 26 27 30 32 34 35 37 38 40 41 42 42 42 42 43 43 43 43 43 43 44 45 47 50 53 56 59 62 65 67 67 67 66 65 64 63 61 60 59 59 59 59 59 59 59 60 60 60 61 62 62 63 64 65 66 67 67 68 69 70 70 71 72 72 72 74 75 75 76 77 78 79 79 80 80 80 81 81 81
17 17 18 19 21 23 25 27 30 31 33 35 37 38 39 40 41 42 42 42 42 43 43 43 43 43 43 44 45 47 50 52 55 59 62 64 66 66 66 65 64 62 61 59 58 57 57 57 56 56 56 57 57 57 58 58 59 60 62 63 64 65 66 68 69 69 69 70 71 72 73 73 73 74 75 76 77 77 78 79 80 80 81 81 81 81 81
15 17 19 21 24 27 29 31 33 34 36 37 38 39 40 41 42 42 42 43 43 43 43 43 43 43 44 45 47 49 51 54 57 61 64 65 66 66 65 64 62 60 59 58 57 56 55 55 54 54 54 55 55 56 58 60 61 63 64 65 66 67 68 69 70 71 71 71 71 72 74 74 74 75 76 76 77 78 79 80 80 80 81 81 81 80 80
16 18 21 24 27 29 31 33 34 35 37 38 38 39 40 41 42 42 43 43 44 44 44 44 44 44 45 46 48 50 53 55 59 62 65 66 67 66 64 62 60 59 57 56 55 54 53 53 53 54 55 57 58 60 61 62 63 64 65 65 66 66 67 68 69 70 70 70 70 70 71 72 73 73 74 75 76 77 78 78 79 79 79 79 79 79 79
18 21 24 27 29 31 32 33 34 36 37 38 39 40 41 41 41 42 43 43 44 44 44 44 45 45 46 48 49 51 54 57 60 63 66 66 66 64 63 61 59 58 57 56 56 56 56 56 57 57 58 59 60 61 61 62 63 63 64 64 64 65 66 66 67 68 68 68 67 67 67 68 69 70 71 73 74 75 76 76 77 77 76 76 76 76 77
22 24 26 28 29 31 32 33 34 35 36 37 38 39 40 41 42 43 44 44 45 46 46 46 47 47 48 49 50 52 55 58 61 64 66 66 66 65 64 63 63 62 61 60 59 59 58 58 58 59 59 59 60 60 61 62 63 64 64 64 64 65 65 66 67 67 67 67 67 66 66 67 68 69 70 71 72 73 74 74 74 74 74 73 73 73 74
23 25 26 28 29 30 31 32 34 35 36 37 38 39 40 42 43 44 45 46 47 48 48 48 48 48 48 50 51 54 56 59 62 64 66 67 68 68 68 67 66 64 63 62 61 60 59 59 59 59 60 60 61 62 63 64 65 65 66 66 66 67 67 67 68 68 69 69 68 68 67 68 69 69 70 71 72 72 73 73 72 72 72 71 72 72 73
23 25 26 27 29 30 31 32 33 35 36 38 39 40 42 43 45 46 47 47 48 49 49 49 49 49 50 51 53 55 58 61 63 66 68 69 70 70 70 69 67 66 65 64 63 62 62 62 62 62 62 63 64 65 66 67 67 68 69 69 69 70 70 70 71 71 71 71 71 70 69 69 70 70 71 71 71 72 72 72 72 71 71 71 72 73 74
23 24 26 27 29 30 31 32 34 36 37 39 40 41 43 44 45 46 47 48 49 50 51 51 51 51 52 54 55 57 60 62 65 67 69 71 72 72 72 71 70 69 68 67 66 66 66 66 65 65 65 66 67 68 69 69 70 71 72 72 73 73 73 73 74 74 74 73 73 73 73 72 72 72 72 72 72 72 72 72 72 72 72 72 73 74 76
23 24 26 27 29 30 31 33 35 36 38 39 41 42 44 45 46 48 49 50 51 52 53 53 53 53 54 55 56 59 61 64 66 69 71 73 74 74 74 74 73 73 72 71 70 70 70 69 69 69 69 69 70 71 72 72 73 74 75 75 76 77 76 76 76 76 76 75 75 75 75 75 75 74 74 74 74 73 73 73 73 73 73 74 75 77 78
23 25 26 28 29 30 32 33 35 36 38 40 42 43 44 46 48 49 51 52 53 54 54 54 54 54 55 56 58 60 63 65 68 70 72 74 75 76 77 77 76 76 76 75 74 74 73 73 73 73 73 73 73 74 75 76 77 77 78 79 79 80 80 80 79 79 79 78 77 76 75 75 75 75 75 74 74 74 73 73 73 74 75 76 77 79 81
24 25 27 28 29 31 32 33 35 37 39 40 42 43 45 47 49 51 52 54 55 56 56 56 56 57 57 58 60 63 65 67 70 72 73 75 77 78 79 79 79 79 80 79 78 78 77 77 76 76 76 77 77 77 78 79 80 80 81 82 82 82 83 83 82 82 81 81 80 78 77 76 76 75 75 75 75 74 74 73 74 75 76 77 79 80 81
24 26 27 29 30 31 32 33 35 37 39 41 43 45 46 48 50 52 54 56 57 58 59 59 59 60 61 62 63 65 67 69 71 73 75 76 78 80 81 82 82 82 82 82 82 82 81 81 80 80 80 80 80 81 81 82 83 83 84 84 84 84 84 85 85 84 83 82 82 81 80 78 77 77 77 76 76 75 75 75 75 76 77 78 80 81 81
25 27 28 29 31 32 33 34 35 37 40 42 44 46 48 50 52 54 56 57 59 60 62 62 62 63 63 64 65 67 69 71 73 75 76 78 79 81 83 84 85 85 85 85 86 86 85 84 84 84 84 84 84 84 84 85 85 86 86 86 86 86 86 86 86 86 85 85 84 83 82 81 80 79 79 78 78 77 76 76 76 77 77 79 80 81 81
26 28 29 30 31 33 34 35 36 38 40 43 45 48 50 52 54 55 57 59 61 62 64 64 64 64 65 66 67 68 70 72 74 76 78 79 81 83 84 86 87 88 88 88 88 88 88 88 87 87 87 87 87 87 87 87 88 88 88 89 89 89 89 89 88 88 88 87 86 85 84 83 82 81 80 80 79 78 77 76 76 76 77 79 80 81 81
27 29 30 31 32 33 34 36 37 39 41 44 46 49 51 53 55 57 59 61 63 64 64 65 65 66 66 67 68 69 71 73 76 78 80 81 83 84 86 87 89 90 90 90 91 91 91 91 91 90 89 89 89 89 89 90 90 90 91 91 91 91 91 91 91 90 90 89 89 87 86 85 83 82 82 81 80 79 78 77 77 77 78 79 81 82 82
28 29 31 32 33 34 35 36 38 39 42 44 47 50 52 54 56 58 60 62 63 65 66 66 66 66 67 67 69 70 72 75 77 79 81 83 84 86 87 88 90 91 92 92 92 92 93 93 93 92 92 92 92 92 92 92 92 92 93 93 93 94 94 93 93 92 92 91 90 89 88 87 85 84 83 83 82 81 80 79 79 79 80 81 82 83 83
28 30 32 33 35 36 36 38 39 40 42 45 48 51 53 55 57 58 60 62 64 65 66 66 67 67 68 69 70 72 74 76 79 81 83 85 86 87 88 89 91 92 93 94 94 94 94 95 95 95 94 94 94 94 94 94 94 95 95 95 96 96 96 96 95 95 94 94 93 92 90 89 87 86 85 85 84 83 82 81 80 81 82 83 84 85 85
29 31 33 34 36 37 38 39 40 41 43 45 48 51 53 55 57 58 60 62 64 65 66 67 67 68 69 71 72 74 76 78 80 82 84 86 87 88 89 90 92 93 94 95 95 96 96 96 97 97 97 97 97 96 96 96 96 97 97 98 98 98 98 98 98 97 97 96 95 94 93 91 90 88 87 86 85 85 83 82 82 82 83 84 86 86 86
30 32 34 36 37 38 39 39 41 42 44 46 48 50 53 55 56 58 60 62 64 66 66 67 68 69 71 73 74 76 78 79 81 83 85 87 88 89 90 91 92 94 95 96 97 98 98 98 99 99 100 100 100 99 98 98 99 99 99 100 100 101 101 100 100 100 99 98 97 96 95 93 92 91 89 88 87 86 85 83 83 83 84 85 86 87 87
31 33 35 37 38 39 40 41 42 43 44 46 48 50 53 55 57 59 61 63 65 66 68 69 70 71 72 74 76 77 79 81 82 84 86 88 89 90 91 92 93 94 96 98 99 99 100 100 100 101 102 102 102 102 101 101 101 101 102 102 103 103 103 103 103 102 101 100 99 98 97 95 94 93 91 90 89 88 86 84 84 84 84 85 86 88 88
32 35 36 38 39 41 42 43 43 44 45 47 48 51 53 56 58 60 62 64 65 67 69 70 71 72 73 75 76 78 80 82 84 85 87 88 90 91 92 92 93 95 96 98 99 100 101 101 102 103 104 104 105 105 104 104 103 103 104 104 105 105 105 105 105 105 104 103 102 100 99 97 96 94 93 92 91 90 88 87 85 85 85 86 87 88 88
34 36 38 39 41 42 43 44 44 45 46 47 49 51 54 56 59 61 63 64 66 68 69 71 72 73 74 76 77 79 81 83 85 86 88 89 90 92 93 94 94 95 96 98 99 101 102 103 103 104 105 106 107 107 107 106 106 105 106 106 107 107 108 108 107 107 106 105 104 103 101 100 98 96 95 94 93 91 90 89 87 87 87 87 88 88 89
34 37 39 41 42 43 44 45 46 46 47 48 50 52 55 57 60 62 63 65 67 69 70 71 73 74 75 77 78 80 82 84 85 87 88 90 91 92 94 95 95 95 96 97 99 101 102 103 104 105 106 107 108 109 109 109 108 108 108 108 109 109 109 109 109 109 108 107 106 105 103 102 100 99 97 96 95 93 91 90 88 88 88 88 89 90 90
35 37 40 42 43 44 46 46 47 47 48 49 51 53 56 58 60 63 64 66 68 69 71 72 74 75 76 78 79 80 82 84 86 88 89 90 92 93 94 95 96 96 97 97 99 101 103 104 105 106 107 108 109 110 110 111 110 110 110 110 110 110 111 111 111 110 109 108 107 106 105 104 102 101 99 98 96 95 93 91 89 88 88 89 90 91 91
37 39 41 43 44 46 47 48 49 49 50 51 52 54 56 59 61 63 65 67 68 70 71 73 74 76 77 78 80 81 83 84 86 88 89 91 92 94 95 96 97 97 98 98 99 101 103 104 105 107 108 109 110 111 112 112 112 112 111 111 111 112 112 112 112 112 111 110 109 108 107 105 104 102 101 99 98 96 94 92 91 89 89 89 90 91 91
37 39 42 44 45 47 48 49 50 51 51 52 53 55 57 59 62 64 66 68 69 71 72 73 75 76 78 79 81 82 83 85 86 88 90 91 93 94 95 96 97 98 99 99 100 101 103 104 106 107 108 109 111 112 113 113 114 113 113 112 112 113 113 113 113 113 112 111 110 109 108 107 105 104 102 100 99 98 96 94 92 90 90 90 91 91 91
38 41 43 45 46 48 49 50 51 52 53 53 54 55 57 60 62 64 66 68 69 71 72 74 75 77 78 80 81 83 84 85 87 89 90 92 93 95 96 97 98 99 99 100 100 101 103 104 106 107 108 109 111 112 113 114 115 115 114 114 114 114 114 114 114 114 113 113 111 110 109 108 106 105 103 102 100 98 97 95 93 91 90 90 91 92 92
39 41 44 46 47 49 50 51 52 53 53 54 55 56 58 60 62 65 67 68 70 71 73 74 76 77 78 80 82 83 84 86 87 89 91 92 94 95 96 98 99 100 100 101 101 101 103 104 105 107 108 109 111 112 113 114 115 116 116 115 115 115 115 115 115 115 114 114 113 111 110 109 107 106 104 102 101 99 98 96 95 93 91 91 91 92 92
40 42 44 46 48 49 50 51 52 53 54 55 56 57 59 61 63 65 67 69 70 72 73 75 76 77 79 80 81 83 85 86 88 89 91 93 94 96 97 98 99 100 101 101 101 101 103 104 105 106 108 109 110 112 114 115 116 116 116 116 116 116 116 116 116 115 115 114 114 113 111 110 108 106 105 103 102 101 99 98 96 95 93 92 92 93 93
Wind_Direction
282 285 288 290 292 295 299 302 305 307 308 309 309 310 310 311 311 311 310 310 310 311 311 312 314 314 315 315 315 314 313 313 312 312 312 311 311 310 310 309 309 309 308 308 307 307 306 306 305 305 305 305 305 304 304 304 303 303 302 301 301 301 301 301 301 301 300 299 299 298 299 299 299 298 298 298 299 299 299 299 298 298 297 297 297 297 295
281 284 288 290 293 297 299 302 304 307 309 310 310 310 311 310 310 309 309 309 310 311 312 313 314 315 315 315 314 314 313 313 313 312 312 311 311 311 310 310 310 309 309 308 308 307 307 307 307 307 307 306 306 306 306 305 305 304 304 304 303 303 303 303 304 304 303 301 301 301 301 301 301 300 300 300 301 300 300 299 298 298 297 296 296 296 295
282 285 289 292 295 298 300 302 304 307 309 310 311 310 310 309 309 309 309 310 311 312 313 314 315 315 315 314 314 314 313 313 313 313 312 312 312 311 311 311 310 310 309 309 309 309 309 309 309 308 308 308 307 307 307 307 306 306 306 306 305 305 305 306 306 305 304 303 303 303 303 302 302 301 301 300 300 300 298 298 297 297 297 296 296 295 295
284 287 290 293 296 300 302 304 306 308 309 310 309 309 308 308 309 309 310 311 312 313 314 314 315 314 314 314 314 314 314 314 313 313 313 313 312 312 312 311 311 311 311 311 311 311 310 310 310 309 309 309 309 309 309 308 308 308 308 308 307 307 307 307 307 306 304 303 303 303 302 302 301 301 300 300 299 298 298 298 297 297 297 297 296 296 296
289 291 293 297 300 303 305 306 307 308 308 308 308 308 308 308 309 310 311 312 313 314 314 314 314 314 314 314 314 314 314 314 314 314 314 313 313 313 312 312 312 312 312 312 312 312 311 311 311 311 311 311 311 311 310 310 310 310 310 310 309 308 308 308 307 306 305 304 304 303 303 302 301 300 300 300 299 299 298 298 298 298 298 297 297 297 297
293 295 298 301 303 305 306 307 307 307 307 307 308 308 309 309 310 311 312 313 313 314 314 315 315 314 314 314 314 314 315 315 315 314 314 314 313 314 314 314 314 314 314 314 314 313 313 313 314 314 313 313 313 313 312 312 312 312 312 310 309 309 308 308 307 306 305 304 304 303 302 302 301 300 300 300 300 299 299 299 299 298 298 297 297 297 297
296 298 301 303 305 306 306 306 306 307 307 308 308 309 310 311 312 312 313 313 314 315 315 315 315 315 315 315 315 315 315 315 315 315 315 315 315 315 316 316 316 316 316 316 316 316 316 316 316 316 316 316 315 314 314 313 313 313 311 310 309 309 308 307 307 306 305 304 304 303 303 302 301 301 301 300 300 300 299 299 299 298 298 298 297 297 298
299 301 303 305 306 306 306 306 307 308 308 309 310 311 312 312 312 313 313 314 315 316 316 315 315 315 315 315 315 316 316 316 316 316 316 317 317 318 318 318 318 318 318 317 317 318 318 318 318 318 317 317 316 315 314 313 313 312 311 310 309 308 307 307 306 305 305 304 304 303 303 302 301 301 301 300 300 300 299 299 299 298 298 298 298 298 299
301 303 304 305 305 305 306 307 308 308 309 310 311 312 312 313 313 314 316 316 317 316 316 315 315 315 316 317 317 317 318 318 318 318 319 319 320 321 321 320 320 320 319 319 319 319 319 319 318 317 316 316 315 314 313 313 312 311 310 309 308 308 307 306 306 305 304 304 304 303 303 302 301 301 301 301 300 300 300 300 299 299 299 299 300 300 300
302 304 304 305 306 307 308 309 309 310 311 312 313 313 314 315 316 317 317 317 316 316 315 316 316 317 318 318 319 319 320 321 321 322 322 323 323 323 323 322 322 321 321 320 320 319 318 318 317 316 315 315 314 313 312 312 311 310 309 309 308 307 307 306 306 305 304 304 304 303 303 302 302 302 302 301 301 301 301 301 301 301 301 300 300 300 300
304 304 305 306 308 309 309 310 312 313 314 314 315 316 317 318 318 318 317 316 316 316 317 318 318 319 320 321 321 322 323 324 324 325 325 325 325 324 323 323 322 322 321 320 319 318 318 317 317 316 315 315 314 313 312 312 311 310 309 309 308 307 307 306 306 305 305 304 304 304 303 303 302 302 302 302 302 302 302 302 302 301 301 301 300 300 300
305 306 307 309 310 311 313 314 315 315 316 317 317 318 319 319 318 318 317 317 318 319 320 321 322 322 323 324 325 326 326 326 327 327 326 326 325 325 324 323 323 322 321 320 319 319 318 318 317 317 316 315 314 313 312 312 311 310 309 309 308 307 307 306 306 305 305 305 305 304 303 303 303 303 303 303 303 302 302 302 301 301 301 301 301 301 301
307 309 310 312 314 315 316 316 317 318 319 319 320 319 319 319 318 319 319 320 322 323 324 325 326 327 327 328 328 328 329 328 328 328 328 327 326 326 325 324 324 323 322 321 320 319 319 318 318 317 316 315 314 313 312 312 311 310 309 309 308 307 307 306 306 306 305 305 305 304 304 304 303 303 303 303 303 302 302 302 302 301 301 302 301 301 302
310 312 315 316 317 317 318 319 320 320 321 320 320 320 320 321 322 323 324 325 326 327 328 329 330 330 331 331 331 331 331 331 330 330 329 328 328 327 326 325 324 323 322 322 321 320 319 319 318 317 316 315 314 313 312 312 311 310 309 309 308 307 307 307 306 306 305 305 304 304 304 303 303 303 303 303 303 303 303 303 302 302 302 302 302 302 302
315 317 318 319 319 320 321 321 322 321 321 321 322 323 324 325 327 328 329 330 331 331 332 333 333 334 334 334 334 333 333 333 332 331 330 330 329 328 327 326 325 324 324 323 322 321 320 319 318 317 316 315 314 313 312 311 310 310 309 308 308 307 307 307 306 306 305 305 305 304 304 303 304 304 304 304 304 304 304 304 303 303 302 302 302 302 302
319 320 320 320 322 322 323 322 322 323 324 325 326 328 329 330 331 333 334 334 335 336 336 337 337 337 337 336 336 335 335 334 334 333 332 331 331 330 328 327 326 326 325 324 323 322 321 320 319 317 316 315 314 312 311 311 310 309 309 308 308 307 307 307 306 306 306 306 306 306 306 305 305 305 305 305 305 305 305 305 304 304 304 304 304 304 304
320 321 322 323 323 323 323 323 325 326 328 330 332 333 335 336 337 338 339 339 340 340 341 341 341 341 340 340 339 339 339 338 337 336 335 333 332 331 330 329 328 328 326 325 324 322 320 319 318 316 315 314 313 312 312 311 310 310 310 309 309 308 308 308 308 308 308 308 308 308 308 307 307 307 307 307 307 307 306 306 306 306 305 305 305 305 305
322 323 324 324 324 324 325 327 330 333 335 337 338 339 341 342 343 344 345 346 346 346 346 346 346 345 345 344 343 343 342 341 340 339 337 336 335 333 332 330 329 327 325 323 322 320 319 318 317 316 315 314 313 313 312 312 312 311 311 311 310 310 310 310 309 309 309 309 309 309 308 308 308 308 307 307 307 307 307 307 307 307 307 306 306 307 307
323 324 324 324 325 328 331 334 337 339 340 342 344 346 347 349 350 351 351 351 351 351 350 349 349 349 348 347 347 346 345 343 342 341 339 337 335 333 330 329 327 325 324 322 321 320 319 318 317 316 315 315 315 314 314 313 313 313 312 312 312 311 311 311 310 310 310 309 309 309 309 308 308 308 308 308 308 308 308 308 308 308 308 308 309 309 310
324 324 325 328 331 335 337 339 341 343 346 349 351 353 354 355 355 355 355 355 354 354 353 352 352 352 351 350 349 348 347 345 342 340 337 335 333 331 329 328 327 326 325 324 322 321 320 319 318 317 317 316 316 316 315 315 315 314 314 313 313 312 312 311 311 310 310 309 309 308 308 308 308 308 308 308 308 309 309 309 309 310 310 311 312 312 313
324 327 331 334 337 340 342 345 348 352 355 357 358 358 359 359 358 358 358 358 356 356 355 354 354 353 352 351 349 347 345 343 340 338 336 334 333 332 331 330 328 327 326 324 323 322 321 320 320 319 319 318 318 317 317 316 316 316 315 315 314 314 313 313 312 311 311 311 310 310 310 310 310 310 310 310 311 311 311 311 312 313 313 314 314 315 315
329 333 337 340 344 348 351 355 358 360 1 2 2 2 2 1 1 0 360 359 357 356 355 354 353 352 351 349 347 345 343 341 340 339 337 336 335 333 332 330 329 328 327 326 325 324 323 322 322 321 321 320 320 319 319 319 319 318 318 318 317 317 316 316 315 315 315 315 315 315 315 315 315 315 315 315 315 315 315 315 316 316 316 316 316 317 317
337 341 346 350 354 357 360 2 3 4 5 5 5 4 3 2 1 1 360 358 356 355 354 353 352 351 349 348 346 345 344 343 342 341 339 337 336 334 333 332 331 330 329 328 328 327 326 325 325 324 324 324 323 323 323 323 322 322 322 321 321 321 320 320 320 320 320 320 320 320 320 320 320 319 319 319 319 318 318 318 318 318 318 318 319 319 320
346 352 357 359 1 4 5 7 7 7 7 7 6 4 3 2 2 0 359 357 356 355 354 353 352 350 349 348 348 347 346 345 344 342 340 339 338 337 336 335 335 334 333 332 332 331 330 330 329 329 328 328 327 327 327 327 327 327 327 327 327 327 327 326 325 325 325 325 325 324 324 324 324 323 322 322 321 321 321 321 321 321 321 322 322 322 322
358 2 5 6 8 9 9 9 8 8 7 6 5 4 3 2 1 360 358 356 356 355 354 353 352 351 351 350 349 348 348 347 345 343 342 341 341 340 340 339 339 338 338 337 336 336 335 334 333 332 332 331 332 332 333 333 334 334 334 333 333 332 331 330 330 329 329 329 329 328 327 326 326 325 324 324 324 323 323 323 323 324 324 324 324 324 324
6 8 10 11 11 11 10 9 8 7 6 5 3 3 3 2 1 359 358 357 357 356 355 354 354 353 352 351 350 350 349 348 346 346 345 345 345 344 344 344 343 343 342 341 340 339 338 338 338 338 338 339 339 340 339 339 339 338 338 337 336 335 334 333 333 332 332 332 331 330 329 328 328 327 326 326 325 325 325 325 325 325 326 326 326 325 325
12 13 13 13 11 10 9 7 6 6 5 4 3 3 3 2 360 359 359 358 357 356 356 356 355 354 353 352 351 351 350 349 349 349 349 348 348 348 348 348 348 348 347 347 346 345 345 345 345 345 345 345 344 343 342 342 341 341 340 340 339 338 337 337 336 335 334 334 333 332 331 330 329 328 327 327 327 327 327 326 327 327 327 327 327 326 325
16 15 13 12 10 8 7 6 5 5 4 3 3 3 2 1 360 360 359 359 358 358 357 356 356 355 354 353 352 352 351 351 352 352 351 351 351 351 352 353 353 353 353 352 352 351 350 350 350 349 349 347 346 345 345 345 344 344 343 343 342 342 341 340 339 338 337 336 335 335 334 333 332 331 330 330 329 329 328 328 328 328 328 328 327 326 325
16 13 11 9 8 6 5 4 5 4 3 3 3 2 1 0 0 0 360 359 359 358 357 357 356 355 354 353 353 353 353 353 354 354 354 354 355 356 357 357 357 357 357 356 355 354 354 353 353 352 351 350 349 349 348 348 348 347 347 347 346 346 345 344 343 342 340 339 339 338 337 336 335 334 333 332 332 331 330 330 329 329 329 329 328 328 327
13 10 8 6 5 4 4 3 3 3 3 3 3 2 2 2 1 0 360 359 359 358 358 357 356 355 354 354 355 355 355 356 356 356 357 358 359 360 0 0 360 359 360 359 358 357 357 356 355 354 353 353 353 352 352 351 351 350 350 350 349 349 348 347 346 345 344 343 341 341 340 339 338 337 336 335 334 333 332 331 331 331 331 330 330 329 329
10 7 5 4 3 2 2 2 3 3 3 3 2 2 2 2 1 0 360 359 359 358 358 357 356 356 356 356 356 356 356 357 358 358 360 1 2 2 2 2 2 2 2 1 0 360 360 359 358 357 356 356 355 355 354 354 353 353 353 352 352 351 351 350 349 348 347 346 345 344 343 342 341 340 338 337 336 336 335 334 333 333 333 332 332 331 331
5 4 2 1 1 1 1 2 2 2 2 2 2 2 2 1 1 1 360 359 359 359 358 357 357 357 357 356 356 357 358 359 359 0 1 2 3 3 4 3 3 3 3 2 2 2 2 1 360 359 359 358 358 357 356 356 355 355 355 354 354 353 353 352 351 350 349 348 348 346 345 344 343 342 341 340 339 338 337 336 335 335 334 334 334 334 333
2 1 360 360 360 359 360 1 1 1 2 2 2 2 1 1 1 1 360 360 360 359 359 358 358 358 357 357 358 358 359 360 1 2 3 3 4 4 5 5 5 5 4 4 4 4 3 2 1 1 0 360 359 359 358 357 357 357 356 356 356 355 354 354 353 352 351 350 349 348 347 346 345 344 343 341 340 340 339 337 336 336 336 336 336 336 336
359 358 358 358 358 358 359 360 0 0 1 1 1 1 1 1 1 0 360 0 360 359 359 359 359 358 358 359 359 360 360 1 2 2 3 4 4 5 6 6 6 6 6 5 5 5 4 3 3 2 2 1 0 0 359 359 358 358 358 357 357 356 356 355 354 354 353 352 351 350 349 348 347 345 344 343 342 341 340 339 338 338 338 338 338 338 338
358 357 357 357 357 358 358 358 358 359 360 0 0 0 0 1 0 360 360 360 360 359 359 360 360 359 359 360 0 0 1 1 2 3 4 4 5 6 6 6 7 7 7 6 6 5 5 4 4 3 3 2 1 1 0 360 359 359 358 358 358 357 357 356 356 355 354 353 352 351 350 349 348 347 346 345 344 343 342 341 340 340 340 340 340 340 340
358 357 356 356 356 357 357 357 357 358 359 360 360 0 0 0 0 360 360 359 359 360 0 0 0 0 0 0 1 1 1 2 2 3 3 4 5 6 6 7 7 8 7 7 7 6 5 5 5 4 4 3 2 2 1 1 0 360 359 359 358 358 358 357 357 356 355 354 353 352 352 351 350 349 348 347 346 345 344 343 342 342 342 342 342 342 342
357 356 355 355 356 356 356 356 357 357 358 359 359 360 0 0 360 360 359 359 360 1 1 1 0 0 1 1 1 1 1 2 2 3 4 4 5 6 6 6 7 8 8 8 7 7 6 5 5 5 4 4 3 2 2 1 0 360 359 359 359 359 358 358 358 357 356 355 354 354 353 352 351 350 349 348 348 347 346 345 344 343 343 343 343 343 343
356 355 355 355 355 355 355 356 356 357 358 358 359 360 0 0 360 359 359 359 360 0 1 1 1 1 1 1 1 1 1 2 3 3 4 4 5 5 6 6 7 7 8 8 7 7 6 6 5 5 5 4 4 3 2 1 1 0 360 359 359 359 359 358 358 358 357 356 356 355 354 353 352 352 351 350 349 348 347 346 345 345 344 344 344 344 345
355 354 354 354 354 354 355 355 356 356 357 358 359 360 360 360 360 359 359 359 360 0 0 1 1 1 0 1 1 1 2 2 3 3 4 4 5 5 5 6 6 7 7 7 7 7 7 6 6 5 5 5 4 3 2 1 1 0 360 360 359 359 359 359 358 358 358 357 356 356 355 354 353 353 352 351 350 350 349 348 347 346 346 346 346 346 346
354 353 353 353 353 354 354 355 356 356 356 357 358 359 359 359 359 359 358 359 359 360 0 0 0 0 1 1 1 2 2 2 3 3 4 4 4 4 4 5 5 6 6 7 7 7 7 6 6 5 5 5 5 4 3 2 1 1 0 360 360 360 359 359 359 359 358 358 357 356 356 355 354 354 353 352 352 351 350 349 348 347 347 347 347 347 347
352 352 352 353 353 353 354 355 355 355 356 357 358 358 358 358 358 358 358 358 359 359 360 0 0 1 1 1 1 2 2 2 3 3 3 4 4 4 4 4 4 5 5 6 6 6 6 6 6 5 5 5 5 4 3 2 1 1 0 360 360 360 360 359 359 359 358 358 357 357 356 356 355 354 354 354 353 352 351 350 349 349 348 348 348 348 348
351 352 352 352 352 353 353 354 354 355 356 356 357 357 357 357 357 357 357 358 358 358 359 360 0 1 1 1 1 2 2 2 3 3 3 3 3 3 3 3 3 4 4 5 5 6 6 6 6 5 5 5 5 4 3 2 2 1 0 0 360 360 360 360 359 359 359 358 358 357 357 356 356 355 355 355 354 354 353 351 350 350 350 350 350 349 349
351 351 351 351 352 352 352 353 354 354 355 355 355 355 355 356 356 357 357 357 357 358 358 359 360 1 1 1 1 1 2 2 2 2 3 3 2 2 2 2 2 3 3 4 4 5 5 5 5 5 5 4 4 4 4 3 2 1 1 0 360 360 360 360 359 359 359 358 358 357 357 357 356 356 355 355 355 354 354 353 352 351 351 351 351 350 350
350 350 350 350 351 351 352 352 353 353 354 354 354 354 354 355 356 356 357 357 357 357 358 358 359 0 1 1 1 1 1 1 2 2 2 2 2 2 2 2 2 2 3 3 3 4 4 5 5 5 4 4 4 4 4 3 2 1 1 0 0 360 360 360 359 359 359 358 358 357 357 357 357 356 356 356 356 355 354 354 353 352 351 351 352 351 350
349 349 349 349 350 350 351 351 352 352 353 352 352 353 353 354 355 356 356 356 357 357 357 358 358 359 360 0 1 1 1 1 1 2 1 1 1 1 1 1 2 2 2 2 2 3 3 4 4 4 4 4 4 4 4 3 2 1 1 0 0 360 360 360 359 359 359 358 358 358 357 357 357 357 356 356 356 356 355 354 354 353 352 352 352 352 351
347 348 348 348 349 349 349 350 350 351 351 351 352 352 353 353 354 355 355 355 356 356 357 357 358 358 359 359 0 0 0 0 0 1 1 1 1 1 1 1 1 1 1 1 1 2 2 3 3 4 4 3 3 3 3 3 2 2 1 1 0 0 360 359 359 359 358 358 358 358 357 357 357 357 357 356 356 356 356 355 355 354 353 353 353 353 352
345 346 347 347 347 348 348 348 349 349 350 351 351 351 352 353 353 353 354 354 355 355 356 356 357 357 358 358 359 360 360 359 359 360 360 360 360 0 0 0 0 0 0 0 0 1 1 2 3 3 3 3 3 3 3 3 2 2 1 1 0 360 360 359 359 359 358 358 358 358 357 357 357 357 357 357 356 356 356 356 355 355 354 353 353 353 353
344 345 345 345 346 346 347 347 348 348 349 349 350 350 351 351 352 352 353 353 354 354 355 355 356 356 357 357 358 359 359 359 358 358 359 359 359 359 360 359 359 360 360 360 360 360 0 1 2 2 2 2 2 2 2 2 2 2 1 1 0 360 360 359 359 358 358 358 358 358 357 357 357 356 356 356 356 356 356 356 356 355 354 354 354 354 354
342 343 343 344 344 345 346 346 346 347 348 348 348 349 350 350 350 351 351 352 353 353 354 354 355 355 356 356 357 357 358 358 358 357 358 359 359 359 359 359 359 359 359 359 359 359 359 0 1 1 2 2 1 2 2 2 2 1 1 0 0 360 359 359 359 358 358 358 358 358 358 357 357 356 356 356 356 356 356 356 356 356 355 354 354 354 354
340 341 342 342 343 344 344 345 345 346 346 346 347 348 348 349 349 350 350 351 352 352 353 353 354 354 355 355 356 356 357 357 357 357 357 358 358 358 358 358 358 358 358 359 358 358 358 359 0 1 1 1 1 1 1 1 1 1 1 0 360 360 359 359 359 358 358 358 358 358 358 357 357 356 356 356 356 356 356 356 356 356 356 355 354 354 354
338 339 340 341 342 342 343 343 344 344 344 345 345 346 347 347 348 348 349 350 350 351 351 352 352 353 354 354 355 355 355 356 356 356 356 357 357 357 357 357 357 358 358 358 358 357 358 358 359 360 0 0 0 0 0 1 1 1 0 360 360 359 359 359 359 358 358 358 357 358 358 357 357 356 356 356 356 356 356 356 356 356 356 355 355 354 354
336 337 338 339 340 341 341 342 342 342 343 343 344 344 345 346 347 347 348 349 349 350 350 350 351 352 352 353 353 354 354 354 355 355 355 356 356 356 356 356 357 357 357 357 357 357 357 357 358 359 359 360 360 360 360 360 0 0 360 360 359 359 359 359 358 358 358 357 357 357 357 357 357 356 356 356 356 356 356 356 356 355 355 355 355 355 355
Height
10659 10658 10657 10655 10654 10653 10651 10650 10648 10645 10643 10640 10637 10634 10632 10629 10625 10622 10619 10616 10612 10608 10604 10600 10596 10592 10588 10584 10581 10577 10573 10570 10567 10563 10560 10556 10552 10549 10545 10541 10537 10534 10530 10526 10523 10519 10515 10511 10507 10503 10499 10495 10492 10488 10484 10480 10476 10472 10469 10465 10461 10458 10454 10450 10446 10443 10440 10435 10430 10426 10423 10419 10414 10409 10404 10400 10396 10392 10387 10382 10377 10372 10367 10360 10356 10354 10350
10657 10656 10654 10653 10652 10650 10648 10646 10644 10642 10639 10636 10633 10630 10627 10624 10621 10617 10614 10611 10607 10604 10599 10595 10591 10587 10584 10580 10577 10573 10570 10566 10562 10559 10555 10551 10547 10544 10540 10536 10532 10528 10525 10521 10517 10513 10509 10506 10501 10497 10494 10489 10485 10482 10478 10474 10470 10466 10463 10459 10455 10452 10449 10445 10441 10437 10432 10428 10423 10419 10416 10412 10408 10403 10397 10392 10388 10384 10379 10374 10368 10364 10358 10352 10347 10343 10338
10655 10653 10652 10651 10649 10647 10645 10643 10641 10638 10636 10633 10629 10626 10623 10619 10616 10613 10609 10606 10602 10599 10595 10591 10587 10583 10580 10576 10572 10569 10565 10562 10558 10554 10550 10546 10542 10539 10535 10531 10527 10523 10519 10515 10511 10508 10504 10500 10496 10492 10488 10484 10480 10477 10473 10469 10465 10461 10457 10453 10449 10446 10443 10440 10437 10432 10426 10421 10417 10413 10409 10405 10401 10396 10390 10385 10380 10375 10370 10365 10360 10354 10349 10343 10337 10332 10327
10652 10651 10650 10648 10646 10644 10642 10639 10637 10635 10632 10629 10625 10622 10618 10615 10612 10608 10605 10601 10597 10594 10590 10587 10583 10579 10576 10572 10569 10565 10561 10557 10553 10549 10546 10541 10538 10534 10530 10526 10522 10518 10514 10510 10506 10502 10499 10495 10492 10488 10484 10480 10476 10472 10468 10464 10460 10456 10453 10448 10444 10440 10437 10434 10431 10427 10421 10416 10412 10407 10403 10398 10393 10388 10383 10378 10373 10367 10361 10356 10350 10344 10338 10332 10325 10320 10315
10650 10648 10647 10645 10643 10640 10638 10636 10633 10630 10627 10624 10621 10618 10614 10611 10608 10604 10601 10597 10593 10590 10586 10582 10579 10575 10572 10568 10564 10561 10557 10553 10549 10545 10541 10537 10533 10529 10525 10520 10517 10513 10509 10505 10501 10497 10494 10490 10487 10483 10479 10475 10471 10467 10463 10459 10455 10452 10447 10443 10439 10435 10431 10428 10425 10420 10415 10410 10405 10400 10395 10391 10386 10381 10376 10370 10364 10358 10352 10345 10339 10333 10326 10320 10313 10307 10301
10647 10645 10643 10641 10639 10637 10634 10632 10629 10626 10622 10619 10616 10613 10610 10607 10604 10600 10597 10593 10589 10586 10582 10578 10575 10571 10567 10564 10560 10556 10552 10548 10544 10540 10536 10532 10528 10524 10520 10516 10512 10508 10504 10500 10496 10492 10489 10485 10482 10478 10474 10470 10466 10463 10459 10454 10451 10447 10442 10438 10433 10429 10424 10421 10417 10413 10407 10402 10398 10392 10387 10382 10377 10372 10367 10362 10355 10349 10342 10335 10328 10322 10314 10307 10300 10293 10287
10644 10642 10640 10638 10636 10633 10630 10627 10624 10621 10618 10615 10612 10609 10606 10603 10599 10596 10593 10589 10586 10582 10578 10574 10571 10567 10563 10559 10555 10552 10548 10544 10539 10535 10531 10527 10523 10519 10515 10512 10508 10504 10500 10496 10492 10488 10484 10480 10476 10472 10469 10465 10461 10457 10453 10449 10445 10441 10436 10432 10427 10422 10417 10413 10410 10405 10399 10394 10389 10383 10378 10372 10367 10361 10357 10351 10345 10339 10332 10325 10317 10310 10302 10295 10288 10281 10274
10641 10639 10637 10634 10632 10629 10626 10623 10620 10617 10614 10612 10608 10605 10602 10599 10595 10592 10589 10585 10581 10578 10574 10570 10567 10563 10559 10555 10551 10547 10543 10539 10535 10531 10527 10523 10519 10515 10511 10507 10504 10500 10496 10492 10488 10484 10480 10476 10472 10468 10464 10460 10455 10451 10447 10443 10439 10435 10430 10425 10420 10415 10410 10406 10401 10396 10391 10386 10380 10374 10368 10362 10355 10350 10345 10340 10334 10328 10321 10314 10306 10298 10289 10281 10275 10268 10260
10638 10636 10633 10631 10628 10625 10622 10619 10617 10614 10611 10608 10605 10602 10598 10595 10592 10588 10585 10581 10577 10574 10570 10566 10563 10559 10555 10551 10547 10543 10539 10535 10531 10527 10523 10519 10515 10512 10508 10504 10500 10496 10492 10488 10484 10480 10476 10472 10468 10464 10460 10455 10451 10446 10441 10437 10433 10428 10423 10418 10413 10408 10402 10397 10393 10388 10382 10376 10371 10365 10358 10351 10344 10338 10333 10328 10322 10316 10309 10302 10294 10285 10276 10268 10260 10253 10244
10635 10633 10630 10627 10625 10622 10619 10616 10613 10610 10607 10604 10601 10598 10595 10592 10588 10585 10581 10577 10573 10570 10566 10562 10559 10555 10551 10547 10542 10539 10535 10531 10527 10523 10519 10515 10512 10508 10504 10500 10496 10492 10488 10484 10480 10476 10472 10468 10464 10460 10456 10451 10446 10441 10436 10432 10427 10422 10416 10411 10405 10400 10394 10388 10383 10378 10372 10366 10361 10355 10348 10341 10334 10327 10321 10315 10308 10302 10295 10287 10279 10269 10260 10252 10245 10237 10229
10632 10629 10627 10624 10621 10619 10616 10613 10610 10607 10603 10600 10597 10594 10591 10588 10584 10581 10577 10574 10570 10566 10562 10559 10555 10551 10547 10543 10539 10535 10531 10527 10524 10520 10516 10512 10509 10505 10501 10497 10493 10489 10484 10480 10476 10472 10468 10464 10459 10455 10450 10445 10440 10435 10430 10425 10420 10414 10409 10403 10397 10391 10385 10379 10373 10367 10361 10355 10350 10343 10336 10328 10322 10315 10308 10302 10295 10288 10281 10273 10264 10255 10245 10237 10230 10222 10214
10628 10626 10624 10621 10618 10615 10612 10609 10606 10603 10600 10597 10594 10591 10587 10584 10581 10577 10574 10570 10566 10562 10559 10555 10551 10548 10544 10540 10536 10532 10528 10525 10521 10517 10513 10509 10505 10501 10497 10493 10489 10485 10480 10476 10472 10467 10463 10459 10454 10450 10445 10439 10433 10428 10423 10418 10412 10406 10400 10395 10389 10382 10376 10370 10363 10356 10349 10343 10337 10331 10323 10315 10308 10302 10295 10288 10282 10275 10268 10260 10251 10241 10232 10224 10215 10207 10199
10626 10623 10621 10618 10615 10612 10609 10606 10603 10600 10597 10594 10590 10587 10584 10581 10577 10574 10570 10566 10562 10559 10555 10552 10548 10544 10541 10537 10534 10530 10526 10522 10518 10514 10510 10506 10502 10498 10494 10489 10485 10481 10476 10472 10467 10462 10458 10453 10449 10444 10438 10432 10426 10420 10415 10409 10403 10397 10391 10385 10379 10373 10366 10359 10352 10345 10338 10331 10324 10317 10310 10301 10293 10287 10280 10274 10268 10261 10255 10248 10238 10227 10218 10211 10202 10194 10186
10623 10620 10618 10615 10612 10610 10607 10604 10600 10597 10594 10591 10587 10584 10580 10577 10573 10570 10567 10563 10559 10556 10552 10549 10545 10542 10538 10535 10531 10527 10523 10519 10516 10512 10508 10503 10499 10495 10490 10486 10481 10477 10472 10467 10462 10457 10452 10447 10442 10437 10432 10426 10419 10413 10406 10400 10394 10387 10381 10374 10368 10361 10355 10348 10341 10334 10327 10320 10312 10304 10297 10288 10281 10274 10267 10260 10253 10246 10240 10236 10227 10216 10206 10199 10191 10183 10175
10620 10618 10615 10613 10610 10607 10604 10601 10597 10594 10591 10587 10584 10581 10577 10574 10570 10567 10564 10560 10557 10553 10550 10547 10543 10539 10536 10532 10529 10525 10521 10517 10513 10509 10505 10501 10496 10491 10487 10482 10477 10472 10467 10462 10457 10451 10446 10440 10435 10430 10424 10418 10412 10405 10398 10391 10385 10378 10370 10363 10356 10349 10342 10335 10328 10321 10314 10307 10301 10294 10286 10277 10269 10261 10254 10246 10240 10233 10226 10221 10215 10205 10195 10187 10179 10171 10164
10618 10615 10613 10610 10607 10604 10601 10598 10595 10591 10588 10585 10581 10578 10575 10571 10568 10565 10562 10558 10555 10551 10548 10544 10541 10537 10534 10530 10526 10523 10519 10515 10510 10506 10502 10497 10493 10488 10483 10478 10473 10467 10462 10457 10451 10445 10439 10433 10427 10420 10414 10408 10402 10395 10389 10382 10375 10369 10362 10354 10347 10340 10332 10325 10317 10309 10302 10295 10288 10280 10273 10265 10256 10248 10240 10232 10226 10220 10213 10207 10200 10191 10182 10175 10166 10158 10150
10616 10613 10610 10607 10604 10602 10598 10595 10592 10589 10586 10582 10579 10576 10573 10570 10566 10563 10560 10556 10553 10550 10546 10543 10539 10535 10532 10528 10524 10520 10516 10512 10507 10503 10498 10493 10489 10484 10479 10474 10468 10462 10457 10451 10444 10438 10431 10424 10418 10412 10405 10398 10392 10385 10379 10372 10364 10358 10351 10344 10336 10329 10321 10314 10305 10297 10290 10283 10276 10268 10259 10251 10244 10236 10227 10219 10212 10205 10198 10191 10185 10177 10168 10160 10152 10144 10137
10614 10611 10608 10605 10602 10599 10596 10593 10590 10587 10584 10581 10578 10575 10571 10568 10565 10562 10558 10555 10552 10548 10545 10541 10538 10534 10530 10526 10522 10517 10513 10508 10504 10499 10495 10490 10485 10479 10474 10469 10463 10456 10450 10444 10437 10430 10423 10416 10409 10402 10395 10389 10382 10375 10368 10362 10354 10347 10340 10333 10325 10318 10311 10303 10295 10287 10280 10273 10266 10258 10249 10240 10232 10225 10217 10208 10200 10193 10185 10177 10170 10164 10155 10147 10139 10131 10123
10611 10609 10606 10603 10600 10597 10594 10591 10588 10586 10583 10580 10577 10574 10571 10567 10564 10561 10557 10554 10550 10547 10543 10540 10536 10532 10528 10524 10520 10515 10510 10505 10501 10496 10491 10485 10480 10475 10469 10463 10457 10451 10444 10437 10429 10422 10415 10408 10400 10393 10386 10379 10372 10366 10359 10352 10345 10338 10331 10324 10317 10309 10302 10295 10287 10279 10271 10264 10257 10250 10241 10232 10223 10215 10207 10198 10190 10183 10175 10166 10158 10151 10144 10135 10126 10118 10110
10610 10607 10604 10602 10599 10596 10593 10591 10588 10585 10582 10579 10576 10573 10570 10567 10563 10560 10556 10553 10549 10545 10542 10538 10534 10529 10525 10521 10517 10512 10508 10503 10498 10493 10488 10482 10476 10470 10464 10457 10450 10443 10436 10428 10421 10413 10406 10398 10391 10384 10377 10370 10363 10357 10350 10343 10336 10329 10322 10316 10308 10301 10294 10287 10280 10272 10264 10257 10250 10243 10236 10228 10218 10208 10200 10192 10183 10175 10167 10158 10149 10140 10133 10125 10116 10108 10100
10608 10606 10603 10600 10598 10595 10593 10590 10587 10585 10582 10578 10575 10572 10569 10565 10562 10558 10555 10551 10547 10543 10539 10535 10531 10527 10523 10518 10514 10510 10506 10501 10496 10491 10485 10479 10472 10466 10458 10451 10443 10435 10427 10420 10412 10405 10397 10390 10383 10376 10370 10363 10356 10349 10343 10336 10329 10322 10315 10308 10300 10293 10286 10278 10271 10264 10256 10248 10241 10234 10227 10220 10211 10201 10193 10185 10176 10167 10158 10150 10141 10132 10124 10116 10108 10099 10092
10607 10604 10602 10600 10597 10595 10592 10590 10587 10584 10581 10577 10574 10571 10568 10564 10560 10557 10553 10549 10545 10541 10537 10533 10529 10525 10521 10517 10513 10508 10504 10499 10494 10488 10482 10475 10468 10460 10453 10445 10437 10429 10421 10413 10406 10398 10391 10384 10377 10370 10363 10357 10350 10343 10336 10330 10323 10315 10308 10300 10292 10285 10277 10269 10261 10253 10245 10237 10230 10222 10216 10209 10201 10191 10182 10174 10165 10156 10147 10138 10130 10122 10114 10106 10099 10091 10083
10606 10604 10601 10599 10597 10594 10592 10589 10586 10583 10579 10576 10573 10570 10566 10562 10559 10555 10551 10548 10544 10540 10536 10532 10528 10524 10520 10516 10511 10507 10502 10496 10491 10484 10478 10471 10463 10455 10447 10439 10431 10423 10415 10407 10400 10393 10385 10378 10372 10365 10358 10351 10344 10337 10330 10323 10316 10309 10301 10293 10285 10277 10269 10260 10253 10245 10236 10228 10220 10211 10203 10197 10189 10179 10171 10163 10154 10145 10137 10128 10120 10112 10104 10096 10088 10080 10072
10605 10603 10601 10598 10596 10593 10590 10587 10584 10581 10578 10575 10572 10568 10565 10561 10558 10554 10550 10547 10543 10539 10535 10531 10527 10523 10518 10514 10509 10504 10499 10493 10487 10481 10474 10466 10458 10450 10442 10433 10425 10417 10409 10402 10394 10387 10380 10373 10366 10359 10352 10346 10339 10332 10325 10318 10310 10302 10294 10286 10277 10269 10260 10251 10243 10235 10228 10219 10210 10200 10191 10185 10178 10168 10159 10152 10143 10134 10125 10117 10108 10100 10091 10083 10075 10067 10059
10605 10603 10600 10598 10595 10592 10589 10586 10583 10580 10577 10574 10571 10568 10564 10561 10557 10553 10550 10546 10541 10537 10533 10529 10525 10521 10516 10512 10507 10502 10496 10490 10484 10477 10470 10461 10453 10445 10436 10428 10420 10412 10404 10397 10390 10382 10375 10369 10362 10355 10348 10341 10334 10327 10319 10311 10303 10295 10287 10279 10270 10261 10253 10243 10233 10225 10218 10210 10201 10191 10181 10173 10167 10158 10148 10140 10132 10122 10113 10105 10097 10089 10081 10073 10065 10057 10048
10605 10602 10600 10597 10594 10592 10589 10586 10583 10580 10576 10573 10570 10567 10563 10560 10556 10553 10549 10544 10540 10536 10532 10528 10523 10519 10515 10510 10505 10500 10494 10488 10482 10474 10466 10457 10449 10440 10432 10424 10416 10408 10400 10393 10386 10379 10372 10365 10358 10350 10343 10335 10328 10320 10313 10305 10297 10289 10281 10273 10264 10255 10246 10237 10227 10218 10210 10202 10195 10186 10176 10167 10159 10151 10141 10133 10124 10115 10107 10098 10089 10082 10074 10065 10057 10048 10039
10604 10601 10599 10597 10594 10591 10589 10586 10583 10579 10576 10573 10570 10566 10563 10559 10556 10552 10548 10544 10540 10535 10531 10527 10522 10517 10513 10508 10503 10497 10492 10486 10479 10471 10463 10454 10445 10437 10429 10420 10412 10404 10397 10389 10381 10374 10367 10359 10352 10345 10337 10330 10322 10315 10308 10300 10292 10284 10276 10268 10259 10250 10241 10232 10223 10214 10206 10198 10192 10184 10175 10166 10157 10148 10139 10130 10120 10111 10102 10093 10084 10076 10068 10060 10052 10042 10032
10603 10601 10599 10596 10594 10591 10589 10586 10583 10579 10576 10573 10569 10566 10563 10559 10555 10551 10547 10542 10538 10533 10529 10524 10520 10515 10510 10506 10501 10495 10490 10483 10476 10468 10460 10452 10443 10434 10425 10416 10408 10400 10392 10385 10377 10370 10362 10355 10348 10340 10333 10326 10318 10311 10303 10295 10287 10279 10271 10263 10254 10246 10237 10228 10219 10210 10202 10194 10187 10179 10171 10161 10153 10144 10134 10124 10115 10105 10096 10087 10079 10071 10063 10055 10047 10039 10028
10603 10601 10599 10596 10594 10591 10589 10586 10583 10580 10577 10573 10569 10566 10562 10558 10554 10549 10545 10540 10536 10531 10527 10522 10517 10513 10509 10504 10499 10493 10487 10480 10473 10466 10458 10449 10439 10430 10421 10412 10404 10397 10389 10381 10374 10367 10359 10351 10344 10336 10329 10322 10314 10306 10297 10289 10281 10273 10265 10257 10248 10240 10232 10223 10214 10205 10195 10186 10178 10171 10163 10154 10145 10136 10126 10117 10108 10098 10089 10081 10072 10065 10057 10049 10041 10032 10023
10603 10601 10599 10596 10594 10591 10588 10586 10583 10579 10576 10572 10569 10565 10561 10556 10552 10548 10544 10539 10535 10530 10525 10521 10516 10512 10507 10501 10496 10490 10484 10477 10470 10462 10454 10445 10436 10427 10418 10410 10402 10394 10386 10378 10371 10363 10355 10347 10340 10332 10325 10317 10308 10300 10292 10284 10276 10268 10259 10251 10242 10234 10225 10216 10207 10198 10188 10179 10170 10162 10155 10147 10138 10129 10120 10110 10101 10092 10083 10074 10066 10058 10050 10042 10033 10025 10016
10603 10601 10599 10596 10594 10591 10588 10585 10582 10579 10575 10571 10568 10564 10560 10556 10552 10548 10543 10539 10534 10529 10524 10519 10514 10509 10503 10498 10493 10487 10481 10474 10467 10459 10450 10441 10433 10424 10416 10407 10399 10391 10383 10375 10367 10359 10351 10343 10335 10328 10320 10311 10303 10296 10288 10280 10271 10263 10254 10245 10237 10228 10219 10210 10201 10191 10182 10173 10163 10153 10145 10137 10129 10121 10111 10102 10093 10084 10074 10065 10057 10049 10041 10033 10026 10017 10008
10603 10601 10599 10596 10594 10591 10588 10585 10581 10578 10574 10571 10567 10563 10560 10556 10552 10547 10543 10538 10533 10528 10523 10518 10512 10507 10501 10496 10490 10484 10478 10471 10464 10456 10447 10438 10430 10422 10413 10405 10396 10388 10380 10372 10364 10355 10347 10340 10332 10324 10316 10308 10300 10292 10283 10275 10267 10258 10249 10240 10231 10222 10213 10205 10195 10186 10177 10168 10158 10148 10138 10129 10120 10111 10102 10093 10084 10075 10066 10057 10048 10041 10033 10025 10017 10007 9998
10603 10601 10598 10596 10593 10590 10587 10584 10581 10577 10574 10570 10566 10563 10559 10555 10550 10546 10541 10536 10531 10526 10521 10516 10510 10505 10500 10494 10488 10481 10475 10468 10460 10452 10444 10436 10428 10419 10411 10403 10394 10385 10376 10369 10361 10353 10345 10337 10329 10320 10312 10304 10296 10287 10279 10270 10262 10253 10244 10235 10226 10217 10207 10199 10190 10181 10171 10161 10153 10145 10136 10126 10116 10107 10098 10088 10079 10070 10061 10052 10042 10034 10026 10018 10008 9998 9988
10603 10600 10598 10595 10592 10589 10586 10583 10580 10577 10573 10570 10566 10562 10558 10553 10549 10544 10540 10534 10529 10525 10519 10514 10508 10503 10497 10491 10484 10478 10471 10464 10457 10449 10442 10434 10426 10417 10409 10400 10391 10382 10374 10366 10357 10349 10342 10334 10325 10317 10308 10300 10292 10284 10275 10266 10257 10248 10240 10231 10222 10213 10203 10193 10184 10175 10166 10156 10147 10139 10130 10121 10112 10103 10094 10084 10074 10065 10056 10047 10038 10028 10019 10010 10001 9991 9981
10602 10600 10597 10595 10592 10589 10586 10582 10579 10576 10572 10569 10565 10561 10557 10552 10548 10543 10538 10533 10528 10522 10516 10511 10505 10499 10492 10486 10480 10474 10467 10461 10454 10447 10439 10431 10423 10415 10406 10398 10389 10380 10371 10363 10354 10346 10338 10330 10321 10313 10304 10296 10288 10280 10271 10262 10253 10244 10236 10228 10219 10210 10200 10190 10180 10171 10162 10153 10143 10133 10124 10115 10106 10097 10087 10078 10069 10059 10049 10040 10031 10022 10013 10004 9995 9986 9976
10602 10599 10597 10594 10591 10588 10585 10581 10578 10575 10571 10567 10563 10559 10555 10551 10546 10541 10536 10531 10525 10519 10513 10507 10501 10495 10489 10483 10477 10470 10464 10458 10451 10443 10436 10429 10420 10412 10404 10395 10386 10377 10369 10360 10351 10343 10335 10326 10318 10309 10301 10292 10284 10276 10267 10258 10250 10241 10233 10224 10215 10206 10197 10187 10178 10168 10158 10148 10139 10129 10119 10110 10100 10090 10081 10072 10062 10053 10043 10034 10025 10016 10007 9999 9990 9981 9971
10601 10599 10596 10593 10590 10587 10584 10580 10577 10573 10569 10566 10562 10557 10553 10548 10544 10539 10534 10528 10522 10516 10510 10504 10498 10492 10486 10480 10474 10468 10462 10455 10448 10441 10433 10425 10417 10409 10401 10392 10383 10375 10367 10358 10349 10341 10332 10323 10315 10307 10298 10289 10281 10272 10264 10255 10247 10238 10229 10221 10211 10202 10193 10184 10174 10165 10154 10144 10134 10124 10114 10105 10095 10086 10076 10067 10058 10049 10040 10030 10021 10013 10004 9995 9986 9977 9967
10600 10597 10595 10592 10589 10586 10582 10579 10575 10572 10568 10564 10560 10555 10551 10546 10541 10536 10531 10525 10520 10514 10509 10503 10497 10490 10485 10479 10473 10467 10460 10453 10446 10438 10430 10422 10414 10406 10398 10390 10381 10373 10365 10356 10347 10339 10330 10321 10312 10304 10296 10287 10278 10269 10261 10252 10244 10235 10226 10217 10208 10199 10189 10180 10170 10161 10151 10141 10130 10120 10111 10101 10092 10082 10072 10063 10054 10045 10036 10026 10017 10008 9999 9990 9981 9971 9961
10599 10596 10593 10590 10588 10584 10581 10578 10574 10570 10566 10563 10558 10554 10549 10544 10539 10534 10529 10524 10518 10513 10507 10501 10496 10490 10484 10478 10471 10465 10458 10451 10443 10436 10428 10420 10411 10403 10396 10388 10379 10371 10363 10354 10346 10337 10328 10320 10311 10303 10294 10285 10276 10267 10258 10250 10241 10232 10223 10214 10204 10195 10185 10176 10166 10156 10147 10137 10127 10117 10107 10097 10087 10078 10068 10058 10049 10039 10030 10020 10011 10001 9992 9983 9974 9964 9954
10598 10595 10592 10589 10586 10583 10579 10576 10572 10569 10565 10561 10556 10552 10548 10543 10538 10533 10528 10523 10517 10512 10506 10500 10494 10488 10482 10476 10469 10462 10455 10448 10440 10433 10425 10417 10409 10401 10393 10385 10377 10369 10361 10353 10345 10336 10327 10319 10310 10301 10292 10283 10274 10265 10257 10247 10238 10229 10219 10210 10200 10191 10181 10171 10162 10152 10142 10132 10123 10113 10103 10093 10083 10074 10064 10054 10044 10033 10024 10014 10005 9995 9986 9976 9967 9958 9948
10597 10594 10591 10588 10584 10581 10578 10574 10571 10567 10563 10559 10555 10551 10546 10542 10537 10533 10528 10522 10516 10511 10505 10499 10493 10486 10480 10473 10466 10459 10452 10444 10437 10430 10422 10414 10406 10398 10390 10383 10375 10367 10359 10351 10342 10334 10325 10316 10307 10298 10290 10281 10272 10263 10254 10245 10235 10226 10216 10206 10197 10187 10177 10167 10157 10147 10138 10128 10119 10109 10099 10089 10079 10069 10060 10051 10040 10030 10020 10010 10000 9990 9980 9971 9961 9951 9943
10595 10592 10589 10586 10583 10580 10576 10573 10569 10566 10562 10558 10554 10550 10546 10541 10537 10532 10526 10521 10515 10509 10503 10497 10491 10484 10477 10470 10463 10456 10449 10442 10435 10427 10419 10411 10404 10396 10388 10380 10372 10364 10356 10348 10339 10331 10323 10314 10305 10296 10287 10278 10270 10261 10251 10242 10232 10222 10213 10203 10193 10183 10173 10163 10153 10143 10133 10124 10114 10105 10095 10085 10075 10065 10055 10046 10037 10027 10017 10006 9996 9986 9977 9967 9957 9946 9937
10593 10590 10588 10584 10581 10578 10574 10571 10568 10564 10560 10556 10552 10549 10544 10540 10535 10530 10525 10519 10513 10507 10501 10495 10488 10481 10475 10468 10461 10454 10447 10440 10432 10425 10417 10409 10402 10394 10386 10378 10370 10362 10353 10344 10336 10328 10320 10311 10302 10294 10285 10275 10267 10258 10248 10239 10229 10219 10209 10199 10189 10179 10169 10159 10149 10139 10130 10120 10111 10101 10092 10082 10072 10061 10051 10041 10032 10023 10013 10004 9993 9983 9974 9964 9954 9944 9933
10592 10589 10586 10583 10579 10576 10573 10569 10566 10562 10558 10554 10551 10547 10542 10537 10533 10527 10522 10517 10511 10505 10498 10492 10485 10479 10473 10466 10459 10452 10444 10437 10430 10422 10415 10407 10400 10392 10385 10377 10368 10359 10350 10342 10334 10326 10317 10308 10300 10291 10282 10273 10264 10254 10245 10236 10226 10216 10206 10196 10186 10175 10165 10155 10145 10135 10126 10116 10107 10097 10088 10078 10069 10058 10048 10038 10028 10018 10008 9998 9989 9979 9970 9961 9952 9941 9931
10590 10587 10584 10581 10578 10574 10571 10568 10564 10560 10557 10553 10549 10544 10540 10535 10530 10525 10519 10514 10508 10502 10495 10489 10483 10476 10470 10463 10456 10449 10442 10435 10428 10420 10413 10405 10398 10390 10382 10374 10366 10357 10349 10341 10332 10324 10316 10307 10298 10289 10279 10270 10261 10252 10242 10233 10223 10213 10203 10193 10182 10172 10162 10152 10142 10132 10122 10113 10103 10093 10083 10074 10064 10055 10044 10034 10025 10015 10004 9994 9984 9974 9965 9956 9947 9938 9928
10588 10585 10582 10579 10576 10572 10569 10566 10562 10558 10554 10550 10546 10541 10537 10532 10527 10522 10517 10511 10505 10499 10493 10487 10481 10474 10468 10461 10454 10447 10440 10433 10425 10418 10411 10404 10396 10388 10380 10371 10364 10356 10348 10339 10331 10322 10314 10305 10296 10287 10277 10268 10259 10250 10240 10230 10220 10210 10200 10190 10179 10169 10159 10149 10139 10129 10119 10109 10099 10089 10079 10069 10060 10050 10041 10031 10021 10012 10002 9993 9982 9972 9962 9952 9943 9934 9924
10586 10584 10580 10577 10574 10570 10567 10563 10559 10556 10552 10547 10543 10538 10534 10529 10524 10519 10514 10508 10503 10497 10491 10484 10478 10471 10465 10459 10452 10445 10438 10430 10423 10416 10409 10402 10394 10386 10378 10369 10361 10354 10346 10337 10329 10320 10311 10303 10293 10284 10275 10266 10257 10248 10238 10228 10218 10208 10197 10187 10177 10167 10157 10147 10137 10127 10117 10107 10097 10086 10076 10065 10056 10046 10037 10027 10018 10009 10000 9991 9981 9971 9961 9951 9941 9931 9920
10584 10582 10578 10575 10572 10568 10564 10561 10557 10553 10549 10544 10540 10536 10531 10526 10521 10516 10511 10506 10500 10494 10488 10482 10476 10469 10462 10456 10449 10443 10436 10428 10421 10414 10407 10400 10391 10384 10376 10368 10359 10351 10343 10334 10326 10317 10309 10300 10291 10282 10273 10264 10255 10245 10236 10226 10216 10206 10196 10186 10176 10165 10155 10145 10135 10125 10115 10104 10094 10084 10073 10062 10052 10043 10034 10024 10015 10005 9996 9988 9978 9969 9959 9949 9939 9929 9920
10582 10579 10576 10573 10570 10566 10562 10558 10554 10550 10546 10542 10538 10533 10529 10524 10519 10514 10508 10503 10497 10491 10486 10480 10473 10467 10460 10453 10447 10440 10433 10426 10419 10412 10405 10397 10389 10381 10374 10366 10357 10349 10340 10332 10324 10315 10307 10298 10290 10280 10271 10262 10253 10243 10234 10224 10214 10204 10194 10184 10174 10164 10154 10144 10134 10123 10113 10102 10092 10082 10071 10060 10050 10040 10031 10022 10013 10003 9993 9985 9976 9967 9957 9947 9937 9928 9919
10580 10577 10574 10571 10567 10563 10560 10556 10552 10547 10543 10539 10535 10531 10526 10521 10516 10511 10506 10500 10495 10489 10483 10477 10470 10464 10457 10451 10444 10437 10430 10424 10417 10410 10402 10394 10387 10379 10371 10363 10355 10347 10338 10330 10322 10313 10305 10296 10287 10278 10269 10260 10251 10242 10232 10223 10213 10203 10193 10183 10173 10163 10153 10143 10132 10122 10111 10100 10090 10080 10069 10059 10048 10038 10028 10019 10010 10001 9991 9982 9973 9965 9956 9946 9936 9927 9918
10578 10575 10571 10568 10565 10561 10557 10553 10549 10545 10541 10537 10532 10528 10523 10519 10514 10508 10503 10498 10492 10486 10480 10474 10468 10462 10455 10448 10441 10435 10428 10421 10414 10407 10399 10392 10384 10377 10369 10361 10352 10344 10336 10327 10319 10311 10302 10294 10285 10277 10268 10259 10250 10240 10231 10221 10212 10202 10192 10182 10172 10162 10151 10141 10131 10120 10110 10099 10088 10078 10068 10057 10047 10036 10026 10016 10007 9998 9989 9979 9970 9962 9954 9945 9936 9926 9916
10575 10572 10569 10566 10562 10558 10555 10551 10547 10543 10538 10534 10529 10525 10520 10516 10511 10505 10500 10495 10489 10483 10477 10471 10465 10459 10453 10446 10440 10433 10425 10418 10411 10404 10397 10389 10381 10374 10366 10358 10350 10342 10334 10325 10317 10309 10301 10292 10284 10275 10266 10257 10248 10239 10229 10220 10210 10201 10190 10180 10170 10160 10150 10140 10130 10119 10108 10097 10086 10076 10066 10056 10045 10035 10025 10015 10005 9995 9985 9976 9966 9958 9950 9942 9933 9923 9913